UAE822 OEDF-OMDB

Flight info

Callsign UAE822
Flight time N/A
Altitude 25000
Route RYDAN DCT ITULU M440 MIDGU M717 EGVAN Q730 KUNRA DCT TAPRA/N0474F240 M762 VAXAS M564 NALNU Q568 IMPED
Aircraft B77W/H-SDE1E2E3FGHIJ2J3J4J5M1RWXY/LB1D1

Departure

Time 2026-04-29 14:41
Airport King Fahd International Airport (OEDF)

Arrival

Time N/A
Airport Dubai International Airport (OMDB)
Time Latitude Longitude Altitude Speed Heading
2026-04-29 13:57 26.47257 49.79295 93 ft 0 kts 64°
2026-04-29 14:26 26.47250 49.79280 90 ft 4 kts 63°
2026-04-29 14:27 26.47237 49.79254 92 ft 4 kts 62°
2026-04-29 14:27 26.47228 49.79232 92 ft 4 kts 90°
2026-04-29 14:27 26.47238 49.79212 91 ft 4 kts 153°
2026-04-29 14:28 26.47257 49.79202 92 ft 0 kts 155°
2026-04-29 14:31 26.47249 49.79206 92 ft 2 kts 155°
2026-04-29 14:31 26.47227 49.79218 91 ft 5 kts 155°
2026-04-29 14:31 26.47189 49.79238 93 ft 7 kts 154°
2026-04-29 14:32 26.47138 49.79265 94 ft 9 kts 154°
2026-04-29 14:32 26.47071 49.79302 94 ft 13 kts 153°
2026-04-29 14:32 26.46992 49.79347 93 ft 13 kts 153°
2026-04-29 14:32 26.46908 49.79394 94 ft 14 kts 154°
2026-04-29 14:33 26.46815 49.79430 93 ft 14 kts 165°
2026-04-29 14:33 26.46740 49.79452 92 ft 11 kts 165°
2026-04-29 14:33 26.46663 49.79476 94 ft 13 kts 165°
2026-04-29 14:33 26.46568 49.79488 93 ft 14 kts 175°
2026-04-29 14:34 26.46501 49.79490 95 ft 8 kts 195°
2026-04-29 14:34 26.46466 49.79445 95 ft 8 kts 245°
2026-04-29 14:34 26.46446 49.79377 93 ft 9 kts 253°
2026-04-29 14:34 26.46428 49.79308 93 ft 9 kts 253°
2026-04-29 14:35 26.46398 49.79246 94 ft 9 kts 213°
2026-04-29 14:35 26.46332 49.79243 93 ft 10 kts 168°
2026-04-29 14:35 26.46263 49.79264 94 ft 12 kts 164°
2026-04-29 14:35 26.46165 49.79294 95 ft 17 kts 164°
2026-04-29 14:36 26.46054 49.79329 95 ft 17 kts 164°
2026-04-29 14:36 26.45942 49.79365 94 ft 17 kts 165°
2026-04-29 14:36 26.45829 49.79398 94 ft 17 kts 164°
2026-04-29 14:36 26.45718 49.79434 92 ft 17 kts 164°
2026-04-29 14:37 26.45606 49.79469 93 ft 17 kts 165°
2026-04-29 14:37 26.45508 49.79493 95 ft 11 kts 183°
2026-04-29 14:37 26.45466 49.79461 93 ft 5 kts 237°
2026-04-29 14:37 26.45450 49.79418 94 ft 9 kts 250°
2026-04-29 14:38 26.45432 49.79352 92 ft 7 kts 255°
2026-04-29 14:38 26.45427 49.79330 93 ft 0 kts 255°
2026-04-29 14:39 26.45421 49.79305 94 ft 11 kts 255°
2026-04-29 14:39 26.45409 49.79213 94 ft 9 kts 294°
2026-04-29 14:40 26.45464 49.79186 92 ft 0 kts 344°
2026-04-29 14:40 26.45570 49.79153 93 ft 55 kts 344°
2026-04-29 14:40 26.46307 49.78925 95 ft 162 kts 345°
2026-04-29 14:41 26.47616 49.78531 705 ft 211 kts 346°
2026-04-29 14:41 26.49067 49.78107 2138 ft 222 kts 347°
2026-04-29 14:41 26.50615 49.77635 3496 ft 245 kts 343°
2026-04-29 14:41 26.52326 49.77077 4273 ft 262 kts 343°
2026-04-29 14:42 26.54126 49.76502 5003 ft 273 kts 343°
2026-04-29 14:42 26.55988 49.75928 5857 ft 279 kts 344°
2026-04-29 14:42 26.57888 49.75424 6661 ft 284 kts 355°
2026-04-29 14:42 26.59834 49.75784 7385 ft 289 kts 27°
2026-04-29 14:43 26.61404 49.77166 8223 ft 290 kts 54°
2026-04-29 14:43 26.62275 49.79182 9025 ft 292 kts 81°
2026-04-29 14:43 26.62307 49.81437 9800 ft 292 kts 105°
2026-04-29 14:43 26.61725 49.83631 10378 ft 302 kts 112°
2026-04-29 14:44 26.61017 49.85926 10600 ft 331 kts 112°
2026-04-29 14:44 26.60243 49.88474 10805 ft 360 kts 111°
2026-04-29 14:44 26.59423 49.91227 11058 ft 383 kts 112°
2026-04-29 14:44 26.58180 49.93868 11456 ft 389 kts 134°
2026-04-29 14:45 26.56105 49.95770 12213 ft 386 kts 155°
2026-04-29 14:45 26.53605 49.96802 13123 ft 381 kts 173°
2026-04-29 14:45 26.50972 49.97062 14023 ft 378 kts 181°
2026-04-29 14:45 26.48334 49.97192 14884 ft 382 kts 181°
2026-04-29 14:46 26.45666 49.97350 15601 ft 385 kts 183°
2026-04-29 14:46 26.43021 49.97023 16181 ft 383 kts 200°
2026-04-29 14:46 26.40613 49.95799 16947 ft 378 kts 215°
2026-04-29 14:46 26.38401 49.94195 17751 ft 381 kts 217°
2026-04-29 14:47 26.36172 49.92565 18525 ft 384 kts 217°
2026-04-29 14:47 26.33922 49.90931 19276 ft 386 kts 216°
2026-04-29 14:47 26.31660 49.89303 20006 ft 389 kts 216°
2026-04-29 14:47 26.29366 49.87663 20694 ft 393 kts 216°
2026-04-29 14:48 26.27042 49.86009 21359 ft 398 kts 215°
2026-04-29 14:48 26.24700 49.84346 22060 ft 400 kts 215°
2026-04-29 14:48 26.22375 49.82698 22754 ft 403 kts 215°
2026-04-29 14:48 26.19997 49.81015 23406 ft 406 kts 215°
2026-04-29 14:49 26.17603 49.79321 23932 ft 409 kts 215°
2026-04-29 14:49 26.15192 49.77615 24431 ft 412 kts 216°
2026-04-29 14:49 26.12761 49.75896 24929 ft 415 kts 216°
2026-04-29 14:49 26.10311 49.74184 25403 ft 416 kts 213°
2026-04-29 14:50 26.07615 49.72892 25733 ft 431 kts 201°
2026-04-29 14:50 26.04614 49.72380 26136 ft 442 kts 189°
2026-04-29 14:50 26.01515 49.72249 26494 ft 447 kts 189°
2026-04-29 14:50 25.98389 49.72097 26788 ft 453 kts 189°
2026-04-29 14:51 25.95230 49.71916 27183 ft 456 kts 190°
2026-04-29 14:51 25.92057 49.71713 27614 ft 457 kts 190°
2026-04-29 14:51 25.88874 49.71498 28020 ft 459 kts 191°
2026-04-29 14:51 25.85671 49.71281 28366 ft 462 kts 191°
2026-04-29 14:52 25.82445 49.71061 28697 ft 465 kts 191°
2026-04-29 14:52 25.79202 49.70840 29006 ft 468 kts 191°
2026-04-29 14:52 25.75940 49.70628 29210 ft 471 kts 189°
2026-04-29 14:52 25.72650 49.70923 29269 ft 493 kts 175°
2026-04-29 14:53 25.69351 49.72205 29495 ft 513 kts 160°
2026-04-29 14:53 25.66249 49.74195 29707 ft 517 kts 157°
2026-04-29 14:53 25.63139 49.76230 29909 ft 520 kts 157°
2026-04-29 14:53 25.60016 49.78252 30120 ft 519 kts 158°
2026-04-29 14:54 25.56884 49.80254 30344 ft 518 kts 158°
2026-04-29 14:54 25.53757 49.82229 30576 ft 517 kts 158°
2026-04-29 14:54 25.50625 49.84190 30753 ft 517 kts 158°
2026-04-29 14:55 25.44356 49.88087 30832 ft 515 kts 158°
2026-04-29 14:55 25.38142 49.91942 30843 ft 515 kts 158°
2026-04-29 14:56 25.31893 49.95819 30842 ft 515 kts 158°
2026-04-29 14:56 25.25634 49.99699 30847 ft 515 kts 158°
2026-04-29 14:57 25.19382 50.03573 30843 ft 515 kts 158°
2026-04-29 14:57 25.13123 50.07447 30833 ft 516 kts 158°
2026-04-29 14:58 25.06844 50.11327 30844 ft 518 kts 158°
2026-04-29 14:58 25.00555 50.15209 30835 ft 518 kts 158°
2026-04-29 14:59 24.94261 50.19091 30835 ft 518 kts 158°
2026-04-29 14:59 24.87989 50.22955 30833 ft 516 kts 158°
2026-04-29 15:00 24.81727 50.26807 30831 ft 514 kts 158°
2026-04-29 15:00 24.75487 50.30641 30818 ft 514 kts 158°
2026-04-29 15:01 24.69235 50.34477 30827 ft 514 kts 158°
2026-04-29 15:01 24.63008 50.38292 30827 ft 516 kts 158°
2026-04-29 15:02 24.56737 50.42131 30810 ft 516 kts 157°
2026-04-29 15:02 24.50450 50.45977 30809 ft 517 kts 157°
2026-04-29 15:03 24.44166 50.49817 30806 ft 517 kts 157°
2026-04-29 15:03 24.37864 50.53663 30802 ft 517 kts 157°
2026-04-29 15:04 24.31615 50.57471 30795 ft 517 kts 157°
2026-04-29 15:04 24.25329 50.61298 30783 ft 517 kts 157°
2026-04-29 15:05 24.19034 50.65126 30794 ft 517 kts 157°
2026-04-29 15:05 24.12738 50.68950 30786 ft 517 kts 157°
2026-04-29 15:06 24.06450 50.72765 30778 ft 517 kts 157°
2026-04-29 15:06 24.00161 50.76576 30776 ft 516 kts 157°
2026-04-29 15:07 23.93867 50.80386 30752 ft 516 kts 156°
2026-04-29 15:07 23.87586 50.84185 30759 ft 515 kts 156°
2026-04-29 15:08 23.81368 50.87941 30769 ft 514 kts 157°
2026-04-29 15:08 23.75097 50.91723 30771 ft 515 kts 157°
2026-04-29 15:09 23.68821 50.95506 30764 ft 515 kts 156°
2026-04-29 15:09 23.62559 50.99276 30767 ft 514 kts 156°
2026-04-29 15:10 23.57304 51.02436 30758 ft 514 kts 156°
2026-04-29 15:10 23.51046 51.06196 30748 ft 514 kts 156°
2026-04-29 15:11 23.44789 51.09953 30759 ft 513 kts 156°
2026-04-29 15:11 23.38589 51.13712 30760 ft 514 kts 153°
2026-04-29 15:11 23.35739 51.16127 30753 ft 524 kts 140°
2026-04-29 15:12 23.33351 51.19156 30771 ft 531 kts 129°
2026-04-29 15:12 23.31498 51.22653 30754 ft 536 kts 116°
2026-04-29 15:12 23.30096 51.26421 30802 ft 538 kts 114°
2026-04-29 15:13 23.27347 51.34006 30780 ft 540 kts 115°
2026-04-29 15:13 23.24456 51.41551 30769 ft 540 kts 116°
2026-04-29 15:14 23.21530 51.49067 30763 ft 540 kts 116°
2026-04-29 15:14 23.18611 51.56583 30759 ft 539 kts 116°
2026-04-29 15:15 23.15701 51.64075 30748 ft 537 kts 116°
2026-04-29 15:15 23.13281 51.70299 30754 ft 536 kts 116°